Home   Weather   Passau   Past weeks

Flag for Germany Past Weather in Passau, Bavaria, Germany — Yesterday and Last 2 Weeks

Now
36 °F

Chilly.


Feels Like: 36 °F
Forecast: 35 / 54 °F
Wind: 1 mph from Northeast

Location: Rohrbach

Current Time: Apr 28, 2017 at 12:22:55 pm

Latest Report: Apr 28, 2017 at 11:00 am


Visibility: N/A

Pressure: 29.85 "Hg

Humidity: 85%

Dew Point: 32 °F

Location of PassauLocation

Past Weather in Passau — Graph

°F

Passau Temperature Yesterday

Maximum temperature yesterday: 40 °F (at 2:00 pm)
Minimum temperature yesterday: 33 °F (at 11:00 pm)
Average temperature yesterday: 37 °F

High & Low Weather Summary for the Past Weeks

 TemperatureHumidityPressure
High58 °F (Apr 25, 3:00 pm)96% (Apr 27, 6:00 am)30.58 "Hg (Apr 27, 6:00 am)
Low24 °F (Apr 21, 6:00 am)39% (Apr 21, 4:00 pm)29.72 "Hg (Apr 25, 3:00 pm)
Average40 °F75%30.09 "Hg
* Reported Apr 13 11:00 am — Apr 28 11:00 am, Passau, Weather by CustomWeather, © 2017

Note: Actual official high and low records may vary slightly from our data, if they occured in-between our weather recording intervals... More about our weather records

Advertising

Passau Weather History for the Previous 24 Hours

Scroll right to see more
 ConditionsComfort  
Time TempWeatherWind HumidityBarometerVisibility
11:00 am
Fri, Apr 28
36 °FChilly.1 mph85%29.85 "HgN/A
10:00 am36 °FChilly.3 mph85%29.84 "HgN/A
9:00 am37 °FChilly.1 mph87%29.84 "HgN/A
8:00 am36 °FChilly.3 mph88%29.85 "HgN/A
7:00 am35 °FSprinkles. Cloudy.1 mph91%29.85 "HgN/A
6:00 am35 °FFog.1 mph90%29.84 "HgN/A
5:00 am34 °FChilly.1 mph95%29.85 "HgN/A
4:00 am33 °FFog.1 mph96%29.88 "HgN/A
3:00 am33 °FFog.1 mph96%29.90 "HgN/A
2:00 am34 °FChilly.1 mph95%29.92 "HgN/A
1:00 am34 °FFog.3 mph94%29.90 "HgN/A
12:00 am34 °FFog.2 mph95%29.94 "HgN/A
11:00 pm
Thu, Apr 27
33 °FChilly.No wind96%29.96 "HgN/A
10:00 pm34 °FFog.1 mph94%29.98 "HgN/A
9:00 pm36 °FFog.1 mph92%29.97 "HgN/A
8:00 pm37 °FChilly.2 mph90%29.96 "HgN/A
7:00 pm38 °FFog.1 mph88%29.96 "HgN/A
6:00 pm39 °FSprinkles. Cloudy.1 mph86%29.96 "HgN/A
5:00 pm40 °FChilly.2 mph85%29.96 "HgN/A
4:00 pm40 °FSprinkles. Cloudy.1 mph83%29.97 "HgN/A
3:00 pm40 °FSprinkles. Cloudy.2 mph86%29.96 "HgN/A
2:00 pm40 °FQuite cool.2 mph84%29.96 "HgN/A
1:00 pm40 °FFog.1 mph82%29.96 "Hg1 mi
12:00 pm39 °FChilly.2 mph86%29.96 "HgN/A
Weather by CustomWeather, © 2017

See weather overviewHow to use our weather pages